Location: Brachbach
(49.1847°N, 9.7240°E)
Time: 13:49:52
(UTC+00:00)

YAOGAN 29 DEB - Visible Passes

Search period start: 03 October 2024 00:00
Search period end: 13 October 2024 00:00
Orbit: 601 x 603 km, 97.9° (Epoch: 02 October)

Date Brightness Start Highest point End Pass type
(mag) Time Alt. Az. Time Alt. Az. Time Alt. Az.
03 Oct ? 18:09:29 10° S 18:13:41 66° WSW 18:17:56 10° NNW visible
04 Oct ? 18:21:21 10° S 18:25:28 50° W 18:29:38 10° NNW visible
05 Oct ? 18:33:19 10° SSW 18:37:16 38° W 18:41:16 10° NNW visible
06 Oct ? 18:45:22 10° SSW 18:49:04 29° W 18:52:49 10° NW visible
07 Oct ? 17:21:01 10° SE 17:24:59 41° ENE 17:29:00 10° N visible
07 Oct ? 18:57:30 10° SSW 19:00:54 23° W 19:04:18 10° NW visible
08 Oct ? 17:32:32 10° SSE 17:36:39 53° ENE 17:40:48 10° N visible
08 Oct ? 19:09:48 10° SW 19:12:43 18° W 19:15:39 10° NW visible
09 Oct ? 17:44:07 10° SSE 17:48:19 69° ENE 17:52:33 10° N visible
09 Oct ? 19:22:19 10° WSW 19:24:32 14° W 19:26:47 10° WNW visible
10 Oct ? 17:55:45 10° SSE 18:00:00 90° NE 18:04:16 10° NNW visible
10 Oct ? 19:35:29 10° W 19:36:23 11° W 19:37:16 10° WNW visible
11 Oct ? 18:07:27 10° S 18:11:40 70° WSW 18:15:56 10° NNW visible
12 Oct ? 18:19:13 10° S 18:23:21 53° W 18:27:32 10° NNW visible
